Weather Service Report


422 
ASUS42 KFFC 240303
RWRGA 
WEATHER ROUNDUP FOR GEORGIA
NATIONAL WEATHER SERVICE PEACHTREE CITY GA
1100 PM EDT SAT MAY 23 2015

NOTE: "FAIR" INDICATES FEW OR NO CLOUDS BELOW 12,000 FEET WITH NO
SIGNIFICANT WEATHER AND/OR OBSTRUCTIONS TO VISIBILITY. 

* = USE WITH CAUTION. THE STATIONS MARKED WITH AN ASTERISK MAY NOT
REPORT WEATHER SUCH AS PRECIPITATION, FOG, OR THUNDER AND ARE NOT 
QUALITY CONTROLLED BY NWS.

THE REMARK "TC" DENOTES TEMPERATURE READING IN DEGREES CELSIUS.

GAZ001>058-240400-
NORTH GEORGIA
  
CITY           SKY/WX    TMP DP  RH WIND       PRES   REMARKS
ATLANTA        PTCLDY    71  50  47 E8        30.31R                  
ATHENS         CLEAR     65  48  54 E5        30.33R                  
CHAMBLEE       CLEAR     69  49  48 E5        30.31R                  
PEACHTREE CITY CLEAR     62  55  77 CALM      30.31R                  
ROME           CLEAR     64  55  72 CALM      30.28R                  
WEST ATLANTA   CLEAR     63  53  70 CALM      30.30S                  
GAINESVILLE    CLEAR     66  46  48 E5        30.35S                  
CARTERSVILLE   CLEAR     63  50  62 SE3       30.30R                  

  
CITY           SKY/WX    TMP DP  RH WIND       PRES   REMARKS
DALTON*        CLEAR     64  54  68 CALM      30.30R                  
KENNESAW*      CLEAR     70  48  46 E5        30.31R                  
BLAIRSVILLE*     N/A     58  29  33 CALM      30.36S                  
$$

GAZ059>098-102>109-240400-
CENTRAL GEORGIA
  
CITY           SKY/WX    TMP DP  RH WIND       PRES   REMARKS
AUGUSTA-BUSH   CLEAR     65  51  60 SE5       30.33R                  
AUGUSTA-DANIEL CLEAR     74  51  44 SE8       30.34R                  
COLUMBUS       CLEAR     72  52  49 E6        30.26R                  
MACON          CLEAR     64  58  80 CALM      30.29R                  

  
CITY           SKY/WX    TMP DP  RH WIND       PRES   REMARKS
LAGRANGE*      CLEAR     67  59  76 CALM      30.28R                  
SYLVANIA*      CLEAR     71  64  80 SE6       30.34S                  
MILLEDGEVILLE* CLEAR     73  55  53 E3        30.31R                  
$$

GAZ099>101-110>166-240400-
SOUTH GEORGIA
  
CITY           SKY/WX    TMP DP  RH WIND       PRES   REMARKS
SAVANNAH       PTCLDY    70  62  76 NE7       30.33R                  
VALDOSTA       CLEAR     74  66  76 E8        30.26R                  
ALMA           PTCLDY    71  64  78 E7        30.29S                  
ALBANY         CLEAR     77  58  51 E9        30.27R                  
BRUNSWICK      CLOUDY    75  64  69 E12       30.30S                  

  
CITY           SKY/WX    TMP DP  RH WIND       PRES   REMARKS
BAINBRIDGE*    PTCLDY    77  64  65 E8        30.23R                  
MOULTRIE*      CLEAR     77  64  65 E7        30.26R                  
VIDALIA*       CLEAR     70  63  78 E6        30.32S                  
WAYCROSS*      PTCLDY    72  67  86 E8        30.28F                  
DOUGLAS*       CLEAR     73  64  73 E7        30.31R                  
$$

Return to Home page


Western Regional Climate Center, wrcc@dri.edu